Wind_Speed
2 2 3 3 3 3 3 3 3 3 3 3 4 4 4 4 4 5 4 4 4 4 3 3 3 3 3 3 3 4 3 2 2 3 4 5 5 5 5 6 5 6 6 6 6 6 6 6 5
3 3 3 3 2 3 3 3 2 2 3 3 3 3 4 4 4 4 4 4 4 4 4 3 4 4 4 4 4 4 4 3 3 4 4 5 6 6 6 6 6 6 6 6 6 6 6 6 6
4 4 3 2 2 2 2 2 2 1 2 2 3 3 3 3 3 3 4 5 4 4 4 4 4 4 4 4 4 4 4 4 4 4 5 6 6 6 6 6 6 6 6 6 6 6 6 7 7
3 3 3 3 2 2 2 2 2 2 2 2 2 2 3 3 3 3 3 4 4 4 4 4 4 4 4 4 4 5 5 5 5 5 6 6 7 7 7 7 7 7 7 7 7 7 7 7 8
3 3 2 2 2 2 2 3 2 2 2 2 2 3 2 2 3 3 3 3 4 4 4 4 4 4 5 5 5 5 6 5 6 6 6 7 7 7 7 7 8 8 7 7 8 7 8 8 8
2 2 3 3 2 2 3 3 3 3 2 1 2 2 2 2 3 3 3 3 3 4 4 5 5 5 5 6 6 6 6 6 6 6 6 6 6 7 7 7 7 7 7 8 8 8 9 9 9
3 2 2 3 2 2 2 3 3 3 2 2 2 2 2 2 3 3 3 4 4 4 4 5 5 5 6 6 6 7 7 7 7 7 7 6 7 7 7 7 8 9 9 9 8 9 9 9 9
3 3 3 3 2 2 2 2 3 3 3 2 2 2 2 2 3 4 4 4 4 4 4 5 5 5 6 6 7 7 7 7 7 7 7 7 8 8 8 8 8 8 8 8 8 9 9 10 9
3 3 3 3 3 2 2 2 2 3 3 3 3 3 3 3 3 3 3 4 3 3 4 4 4 5 5 6 7 7 7 7 8 8 8 8 8 8 8 9 9 9 9 9 9 9 10 10 9
3 3 4 3 3 3 3 2 2 2 2 3 3 3 3 3 3 3 3 3 3 4 4 5 5 5 6 6 7 8 8 8 8 8 8 8 8 8 8 9 9 9 9 9 9 9 9 9 9
4 4 4 4 4 4 3 3 3 2 2 3 4 3 3 3 3 3 4 4 4 5 5 5 6 6 7 8 8 9 9 9 9 9 9 9 9 8 8 8 8 9 9 9 10 10 10 9 9
5 5 5 5 5 5 4 4 3 3 3 4 4 4 4 3 4 4 4 4 4 5 5 5 6 6 7 8 8 9 9 9 9 9 9 9 9 8 8 8 8 9 9 9 9 10 9 9 9
5 5 5 5 5 5 4 4 4 3 4 4 4 4 4 4 5 5 5 5 5 5 6 6 7 7 7 7 8 8 9 9 9 8 9 9 8 8 8 8 8 8 9 9 9 9 9 8 8
6 6 5 5 5 6 5 5 4 4 4 4 4 4 5 5 5 6 6 6 6 6 6 7 7 7 7 7 7 8 8 9 9 8 8 8 8 8 8 8 9 8 9 9 9 9 9 9 9
5 5 5 6 6 7 7 6 5 5 5 5 5 5 6 6 6 6 7 7 7 7 7 7 7 7 7 6 6 7 8 8 9 8 8 9 8 9 9 9 9 9 9 9 9 9 10 10 10
5 6 6 7 7 8 7 7 6 6 6 6 6 6 7 7 7 7 7 7 7 7 7 7 7 7 7 7 7 7 7 7 8 8 8 9 9 9 9 9 9 9 9 9 9 10 10 11 11
6 7 7 8 9 9 8 8 7 7 7 7 7 8 7 7 7 7 7 7 7 7 7 7 7 6 7 7 7 7 8 8 8 8 9 9 9 10 9 10 10 9 9 10 10 11 11 11 11
7 8 9 9 9 9 9 9 8 8 8 9 9 9 9 8 9 9 8 8 7 7 7 7 7 8 7 8 8 7 8 8 9 9 9 9 10 10 10 10 10 10 10 10 11 11 11 11 11
8 9 9 9 9 10 10 10 10 9 10 10 10 11 11 10 10 10 9 9 8 8 9 9 8 8 8 8 8 8 7 8 8 9 9 9 10 10 10 10 11 11 11 11 11 11 11 12 12
9 9 9 9 10 10 11 11 11 11 11 11 11 12 11 11 10 10 10 10 9 10 10 10 9 9 9 9 9 9 9 9 9 9 9 10 10 11 11 11 12 12 12 13 13 13 13 13 12
10 10 10 11 11 11 12 12 11 11 12 12 12 13 12 12 11 12 11 11 10 10 11 11 10 10 10 10 9 9 9 10 10 10 11 11 12 12 13 13 13 13 13 14 14 14 14 14 13
11 11 12 12 12 12 12 12 12 12 12 13 13 12 12 12 12 13 12 12 11 11 11 11 11 11 11 11 10 10 10 10 11 11 12 13 13 14 14 14 14 14 14 14 14 14 14 14 14
12 12 13 13 13 13 12 12 12 12 12 12 12 12 13 13 14 13 14 13 13 12 12 12 12 12 12 11 11 11 11 12 12 13 13 14 14 15 15 15 15 15 15 15 15 14 14 14 15
13 13 14 13 14 13 13 13 12 12 12 12 12 12 13 13 14 14 14 14 14 13 13 13 13 13 13 13 13 13 13 14 14 14 14 15 15 16 16 15 16 16 16 16 15 16 15 15 16
14 13 13 14 13 13 12 13 13 12 12 12 13 13 13 13 14 14 14 14 14 14 15 14 14 14 14 14 15 15 15 15 16 16 16 16 17 17 17 17 18 18 17 17 17 17 17 17 17
13 13 13 14 14 13 13 13 12 12 12 12 13 13 13 14 14 15 15 14 15 15 15 16 16 16 16 16 16 16 17 17 17 18 18 18 18 19 19 19 19 19 19 19 19 19 19 19 18
14 14 14 15 15 15 15 13 13 12 13 13 14 14 14 15 15 15 15 15 16 16 17 17 17 17 17 18 18 18 18 19 19 19 19 20 20 20 21 21 21 21 21 21 21 21 21 21 20
15 15 15 15 16 16 15 14 13 13 13 14 14 15 16 16 17 18 17 18 18 18 18 18 18 18 18 19 19 20 20 20 20 20 21 21 22 22 23 23 23 23 23 23 23 23 23 23 22
16 16 17 17 17 18 16 14 14 14 14 15 16 17 18 18 19 20 20 20 20 19 19 19 20 20 20 21 21 21 21 21 21 21 22 23 24 24 25 25 25 26 25 26 26 25 25 25 24
17 17 17 18 18 19 19 17 16 17 17 17 18 18 19 20 21 21 22 22 22 21 21 21 22 22 22 23 23 23 23 23 23 23 23 24 25 26 26 27 28 28 28 28 28 27 27 26 26
Wind_Direction
247 243 242 240 243 242 243 241 240 241 227 225 224 227 236 234 233 235 234 231 233 234 237 249 258 268 282 293 300 306 313 295 277 288 291 291 292 297 300 302 303 298 297 300 298 294 297 306 306
247 249 248 249 250 252 250 242 237 237 231 227 229 231 234 238 239 233 228 233 235 237 245 256 265 274 281 291 297 298 284 276 283 278 282 286 287 290 291 294 297 297 297 294 297 291 294 304 310
251 249 247 254 261 259 243 220 225 230 220 223 221 229 238 238 234 231 229 233 228 232 243 250 266 280 283 285 291 293 286 280 284 282 276 277 280 290 293 290 294 294 293 293 293 289 291 297 301
250 245 244 251 247 238 217 196 201 216 222 223 219 236 245 229 228 235 231 230 228 233 241 249 261 273 283 290 290 295 293 284 286 282 277 283 285 287 290 288 287 286 286 291 287 286 286 289 295
243 238 238 236 235 234 208 188 207 212 212 217 222 220 225 231 240 239 238 234 236 240 244 249 260 266 276 283 287 289 287 286 287 281 280 285 286 286 285 292 290 290 289 291 291 289 289 288 292
246 243 236 233 232 222 203 197 197 208 208 216 216 217 222 243 253 240 236 240 244 248 249 251 259 266 274 278 280 282 283 282 283 281 281 285 289 283 282 287 293 294 293 293 290 290 288 289 294
252 256 246 235 220 215 219 207 196 206 218 231 242 249 250 250 248 236 234 241 248 258 263 264 267 270 276 276 277 279 279 278 279 276 274 282 289 284 280 284 291 293 293 292 290 288 287 289 291
254 251 242 229 221 220 214 222 210 210 216 230 242 253 256 250 244 243 238 246 253 261 267 267 269 271 276 276 276 277 277 276 274 275 274 280 286 286 279 281 284 290 290 287 288 289 284 283 287
246 241 235 220 217 230 234 233 228 224 231 240 252 259 257 252 255 252 242 251 255 266 268 268 270 270 274 275 274 271 272 275 270 269 274 278 284 285 280 280 279 283 286 289 290 288 287 288 291
243 240 234 235 233 244 245 242 239 242 256 256 255 256 253 253 253 249 248 257 262 271 273 274 275 275 277 279 274 269 266 268 270 270 273 276 279 282 283 282 282 284 287 290 290 292 294 293 293
239 239 244 245 249 252 254 267 265 259 270 267 261 255 252 247 248 256 258 264 271 274 275 277 277 278 280 279 278 274 267 266 269 270 271 272 276 279 282 282 283 289 292 293 293 293 295 297 296
240 244 245 248 255 261 268 275 269 263 272 274 269 261 254 250 255 263 265 271 279 280 279 279 281 284 285 281 279 275 270 269 269 269 267 268 270 273 276 281 284 288 292 294 294 294 295 297 300
244 250 251 250 257 265 273 281 278 270 272 272 263 262 261 262 266 270 271 275 282 283 282 284 284 289 289 284 278 274 270 268 270 271 271 272 270 271 276 280 285 286 286 289 291 289 289 293 294
243 251 257 261 264 268 268 270 273 267 261 262 261 263 266 266 271 272 273 277 282 283 281 283 286 289 291 289 285 280 272 268 269 270 271 270 270 272 275 277 282 283 284 284 283 282 284 288 291
252 257 262 265 267 268 270 266 266 264 258 259 265 268 270 270 270 271 272 275 278 281 282 282 286 289 294 295 292 285 276 269 269 271 272 270 269 271 273 275 279 278 278 280 279 281 284 286 290
261 263 269 269 267 266 266 266 260 263 265 265 265 267 269 265 265 269 272 274 275 280 282 283 286 289 294 297 292 287 284 275 273 273 274 273 273 276 279 278 280 282 279 277 279 281 283 287 289
261 266 268 268 267 264 264 265 259 262 264 263 263 265 269 262 264 271 273 272 275 278 281 284 287 286 289 292 292 292 289 282 276 276 278 279 280 279 283 287 285 286 282 280 281 282 283 286 287
267 269 269 269 266 265 266 267 265 263 264 264 263 265 266 264 265 269 271 270 273 275 277 280 284 287 290 294 293 291 289 288 282 279 282 283 281 280 285 289 289 289 286 285 285 286 286 284 284
278 278 279 278 273 269 269 271 271 268 266 265 264 264 266 267 266 266 267 270 272 271 272 275 278 281 286 290 293 291 287 286 282 279 280 282 280 280 284 288 291 292 290 287 287 287 285 284 284
282 282 283 281 276 274 271 270 272 272 270 267 266 265 266 266 263 264 263 267 269 269 269 270 272 274 278 283 286 287 286 284 282 280 280 278 278 280 282 285 288 290 289 287 287 287 286 284 284
279 281 282 279 276 276 275 273 274 275 273 270 268 266 266 267 268 267 263 263 262 264 265 267 270 271 275 278 280 283 283 283 282 281 279 279 278 280 282 283 285 287 286 285 284 284 285 285 287
278 278 278 277 277 277 276 276 277 277 276 274 268 265 265 267 268 267 264 263 263 264 266 266 267 269 272 275 276 279 282 281 279 281 283 283 283 283 283 283 284 285 286 284 282 281 283 286 288
276 277 276 274 277 277 276 277 278 276 275 274 269 268 266 265 265 265 262 262 261 262 263 264 265 268 271 273 274 276 280 282 282 280 282 284 284 284 285 287 286 285 287 287 286 286 286 287 288
276 276 276 275 277 277 279 279 277 278 277 273 270 270 269 269 267 265 265 266 262 261 262 263 266 268 270 270 274 276 278 282 282 281 281 282 283 284 285 286 287 285 284 285 285 284 285 287 288
273 275 276 276 276 279 281 280 280 280 279 277 274 276 273 273 271 270 269 268 264 262 262 263 266 269 271 271 274 276 278 280 280 280 280 280 281 282 283 285 286 285 283 282 282 283 284 285 286
272 272 274 278 280 280 279 281 282 284 284 283 280 280 278 276 274 273 271 268 266 266 264 263 265 268 271 272 274 276 278 280 281 281 281 281 281 281 281 283 284 284 283 281 280 281 282 282 284
270 271 273 276 278 280 279 279 280 282 283 284 281 278 277 276 277 278 276 274 270 269 268 265 265 267 269 271 273 275 277 278 279 281 282 282 282 282 282 282 282 282 282 281 281 281 281 280 281
267 269 270 273 277 279 280 279 278 280 282 282 281 279 276 275 275 277 277 275 273 272 270 266 265 266 268 271 273 275 276 278 279 280 280 282 282 282 282 281 280 281 281 281 281 281 280 280 280
267 268 271 272 274 278 279 280 280 282 282 283 283 280 276 276 276 277 277 275 273 274 273 270 267 267 269 271 273 275 276 277 279 281 282 283 284 283 283 281 280 279 279 279 279 279 278 277 277
269 273 274 274 275 277 279 282 283 281 281 283 284 283 280 278 278 277 276 277 275 274 274 272 271 270 270 271 272 274 276 277 278 280 281 282 284 284 283 281 280 279 278 278 277 277 277 276 275
Height
5855 5855 5856 5858 5859 5859 5859 5860 5860 5860 5861 5862 5862 5862 5863 5864 5865 5868 5867 5866 5866 5867 5867 5868 5868 5868 5868 5868 5867 5867 5866 5864 5865 5866 5867 5867 5867 5867 5867 5868 5868 5868 5867 5867 5867 5867 5867 5866 5866
5854 5855 5857 5858 5857 5858 5859 5859 5860 5860 5861 5861 5861 5862 5863 5863 5864 5864 5864 5865 5866 5866 5866 5867 5867 5867 5867 5867 5867 5866 5866 5866 5866 5866 5866 5866 5866 5867 5867 5867 5867 5867 5866 5866 5866 5866 5866 5866 5866
5854 5855 5857 5857 5857 5858 5859 5859 5859 5860 5860 5861 5861 5862 5862 5863 5863 5863 5864 5864 5865 5865 5866 5866 5866 5866 5866 5866 5866 5866 5866 5866 5866 5866 5865 5865 5866 5866 5866 5866 5866 5866 5866 5866 5865 5865 5865 5865 5866
5854 5856 5856 5857 5857 5858 5858 5859 5859 5860 5860 5860 5861 5862 5862 5862 5863 5863 5863 5863 5864 5864 5865 5865 5865 5865 5865 5865 5865 5865 5865 5865 5865 5865 5865 5865 5865 5865 5865 5865 5865 5864 5864 5864 5864 5864 5864 5864 5864
5854 5855 5855 5856 5857 5857 5858 5858 5859 5859 5860 5860 5861 5861 5861 5862 5862 5862 5863 5863 5863 5864 5864 5864 5864 5864 5864 5865 5864 5864 5864 5864 5864 5864 5864 5864 5864 5864 5864 5864 5864 5863 5863 5863 5863 5863 5863 5863 5863
5854 5854 5855 5856 5857 5857 5857 5858 5858 5859 5859 5860 5860 5860 5861 5861 5861 5862 5862 5862 5863 5863 5863 5863 5863 5863 5863 5863 5863 5863 5863 5863 5863 5863 5863 5863 5863 5863 5863 5863 5863 5862 5862 5862 5862 5862 5862 5862 5862
5854 5854 5855 5856 5856 5857 5858 5858 5858 5858 5859 5860 5860 5860 5860 5860 5861 5861 5861 5862 5862 5862 5862 5862 5862 5862 5862 5862 5862 5862 5862 5862 5862 5862 5862 5862 5862 5862 5862 5862 5862 5861 5861 5860 5860 5860 5860 5860 5860
5853 5855 5854 5855 5856 5857 5858 5857 5858 5858 5859 5859 5859 5860 5860 5860 5860 5860 5860 5861 5861 5861 5861 5861 5861 5861 5861 5861 5861 5860 5860 5860 5860 5860 5860 5860 5860 5860 5860 5860 5860 5860 5859 5858 5858 5859 5858 5858 5858
5853 5855 5854 5855 5856 5856 5857 5857 5857 5857 5858 5858 5859 5859 5859 5859 5859 5859 5859 5860 5860 5860 5860 5860 5860 5860 5860 5859 5859 5859 5859 5859 5859 5859 5859 5859 5859 5859 5859 5859 5859 5858 5858 5858 5857 5857 5857 5856 5856
5853 5854 5854 5855 5855 5856 5856 5856 5857 5857 5857 5857 5857 5858 5858 5858 5858 5858 5858 5858 5859 5859 5859 5859 5858 5858 5858 5858 5857 5857 5857 5857 5857 5857 5857 5857 5857 5857 5857 5857 5857 5857 5856 5856 5856 5855 5855 5855 5854
5852 5853 5853 5854 5854 5855 5855 5856 5856 5856 5856 5856 5856 5857 5857 5857 5857 5857 5857 5857 5857 5857 5857 5857 5857 5857 5856 5856 5855 5855 5855 5855 5855 5855 5855 5856 5856 5856 5856 5855 5855 5855 5855 5855 5854 5854 5854 5853 5853
5852 5852 5853 5853 5853 5854 5854 5855 5855 5855 5856 5855 5855 5856 5856 5856 5856 5856 5856 5856 5856 5856 5856 5855 5855 5855 5854 5854 5853 5853 5853 5853 5853 5853 5854 5854 5854 5854 5854 5854 5854 5854 5854 5853 5853 5852 5852 5851 5851
5851 5852 5852 5852 5852 5853 5853 5853 5854 5854 5854 5854 5854 5855 5855 5855 5855 5855 5855 5855 5854 5854 5854 5854 5854 5853 5852 5851 5851 5850 5851 5851 5851 5852 5852 5852 5852 5852 5852 5852 5852 5852 5852 5851 5851 5850 5850 5849 5849
5850 5851 5851 5851 5851 5851 5852 5853 5853 5853 5853 5853 5853 5853 5853 5853 5853 5853 5853 5853 5853 5853 5852 5852 5852 5851 5850 5850 5849 5849 5849 5849 5849 5850 5850 5850 5850 5850 5850 5850 5850 5850 5850 5849 5849 5849 5848 5847 5847
5849 5850 5850 5850 5850 5850 5851 5852 5852 5852 5852 5852 5852 5852 5852 5852 5852 5852 5852 5851 5851 5851 5851 5850 5850 5849 5849 5848 5848 5847 5847 5847 5848 5848 5848 5848 5848 5848 5848 5848 5848 5847 5847 5847 5847 5846 5846 5845 5844
5848 5849 5849 5849 5849 5849 5851 5851 5851 5850 5850 5851 5851 5851 5850 5850 5850 5850 5850 5850 5849 5849 5849 5849 5848 5848 5847 5847 5846 5846 5846 5846 5846 5846 5846 5846 5846 5846 5846 5846 5845 5845 5845 5844 5844 5844 5843 5843 5842
5847 5847 5847 5848 5847 5848 5848 5849 5849 5849 5849 5849 5849 5849 5848 5848 5848 5848 5848 5848 5848 5848 5848 5847 5847 5847 5846 5846 5845 5845 5845 5844 5844 5844 5844 5844 5844 5844 5844 5843 5843 5843 5842 5842 5842 5841 5841 5840 5840
5846 5846 5846 5846 5846 5846 5846 5846 5847 5847 5846 5847 5846 5846 5846 5846 5846 5846 5846 5846 5846 5846 5846 5846 5845 5845 5845 5844 5844 5843 5843 5843 5843 5842 5842 5842 5842 5842 5842 5841 5841 5840 5840 5839 5839 5838 5838 5837 5837
5843 5844 5844 5844 5844 5843 5844 5844 5844 5844 5844 5844 5844 5844 5844 5844 5844 5844 5843 5843 5843 5843 5843 5843 5843 5843 5843 5842 5842 5842 5841 5841 5841 5840 5840 5840 5840 5840 5839 5839 5838 5838 5837 5837 5836 5835 5835 5834 5834
5841 5841 5841 5841 5841 5841 5841 5841 5841 5841 5841 5841 5841 5841 5841 5841 5841 5841 5841 5841 5841 5841 5841 5841 5841 5841 5840 5840 5840 5840 5839 5839 5839 5838 5838 5838 5837 5837 5837 5836 5836 5835 5834 5834 5833 5832 5832 5831 5831
5839 5839 5839 5839 5838 5838 5838 5839 5839 5838 5838 5838 5838 5838 5838 5838 5838 5838 5838 5838 5838 5838 5838 5838 5838 5838 5838 5838 5838 5837 5837 5837 5836 5836 5835 5835 5835 5834 5834 5833 5833 5832 5831 5830 5830 5829 5828 5828 5827
5836 5836 5836 5835 5835 5835 5836 5835 5836 5835 5835 5834 5834 5834 5834 5834 5834 5834 5834 5835 5835 5835 5835 5835 5835 5835 5835 5835 5834 5834 5834 5834 5834 5833 5833 5832 5832 5831 5831 5830 5829 5829 5828 5827 5826 5826 5825 5824 5823
5833 5833 5832 5832 5832 5832 5832 5832 5833 5832 5831 5831 5830 5830 5830 5830 5830 5830 5830 5831 5831 5831 5831 5831 5832 5832 5832 5831 5831 5831 5831 5831 5831 5830 5829 5829 5828 5828 5827 5826 5826 5825 5824 5823 5823 5822 5821 5821 5820
5829 5829 5829 5828 5828 5829 5829 5828 5829 5828 5828 5827 5827 5826 5826 5826 5826 5826 5826 5827 5827 5827 5827 5828 5828 5828 5828 5828 5828 5828 5828 5827 5827 5826 5826 5825 5825 5824 5823 5823 5822 5821 5820 5820 5819 5818 5817 5817 5816
5827 5827 5826 5825 5825 5826 5826 5825 5826 5825 5825 5824 5823 5823 5822 5822 5822 5822 5822 5823 5823 5823 5823 5823 5824 5824 5824 5824 5824 5824 5823 5823 5823 5822 5822 5821 5821 5820 5819 5818 5818 5817 5816 5815 5814 5814 5813 5812 5811
5823 5823 5824 5823 5822 5822 5822 5822 5823 5822 5821 5820 5820 5819 5819 5818 5818 5818 5818 5818 5818 5818 5819 5819 5819 5819 5819 5819 5819 5819 5819 5819 5818 5818 5817 5816 5816 5815 5815 5814 5813 5812 5811 5810 5810 5809 5808 5807 5806
5820 5819 5820 5819 5818 5818 5818 5819 5819 5819 5818 5817 5817 5816 5816 5815 5815 5814 5814 5814 5814 5814 5814 5814 5814 5814 5814 5814 5814 5814 5814 5814 5813 5813 5812 5811 5811 5810 5809 5809 5808 5807 5806 5805 5804 5803 5802 5802 5801
5816 5816 5816 5815 5814 5814 5815 5815 5816 5815 5814 5814 5813 5812 5811 5811 5811 5810 5810 5809 5809 5809 5809 5809 5809 5809 5809 5809 5809 5809 5808 5808 5807 5807 5806 5806 5805 5804 5803 5802 5802 5801 5800 5799 5798 5797 5796 5796 5795
5813 5813 5811 5811 5811 5810 5810 5813 5812 5811 5810 5809 5809 5808 5807 5806 5806 5805 5805 5804 5804 5803 5803 5803 5803 5803 5803 5803 5803 5803 5802 5802 5802 5801 5800 5800 5799 5798 5797 5796 5795 5794 5793 5792 5791 5790 5789 5789 5788
5808 5808 5807 5807 5807 5806 5806 5810 5807 5806 5805 5805 5804 5803 5802 5801 5801 5800 5799 5799 5798 5798 5797 5797 5797 5797 5797 5797 5796 5796 5796 5795 5795 5795 5794 5793 5792 5791 5789 5788 5787 5786 5785 5784 5783 5782 5782 5781 5781